ANTELSAT (40034 NORAD) Tracking and Keplerian Element Data

This shows tracking and keplerian element data for the satellite.

Feedback or suggestion? Click here.




ElementValue
Catalog40034
NameANTELSAT
Epoch Orbit36427
Epoch Day91.16412869
Epoch Year2021
RAAN298.584
Inclination97.6861
Eccentricity0.0059229
Argument of Perigee147.4077
Mean Anonmoly213.0811
Mean Motion14.7443228
Decay Rate3.11E-06
L11 40034U 14033AA 21091.16412869 .00000311 00000-0 52841-4 0 9991
L22 40034 97.6861 298.5840 0059229 147.4077 213.0811 14.74432280364276



Live tracking and technical data element details for ANTELSAT (NORAD 40034). ANTELSAT can be tracked NOW for your location showing map with azimuth and elevation plus other details from your city location.







IsCatalogInMostPopularTable: catalog: 40034, numindb: 383
Update: records affected: 1



GetName: 40034 ANTELSAT

Hit Count: updated at: Fri, 02 Dec 2022 12:52:43 GMT